Regional Weather Roundup
Issued by NWS Cleveland, OH

Home | Current Version | Previous Version | Graphics & Text | Print | Product List | Glossary On
Versions: 1 2 3 4 5 6 7 8 9 10 11 12 13 14 15 16 17 18 19 20 21 22 23 24 25 26 27 28 29 30 31 32 33 34 35 36 37 38 39 40 41 42 43 44 45 46 47 48 49 50
000
ASUS41 KCLE 030500
RWRCLE
OHIO REGIONAL WEATHER ROUNDUP
NATIONAL WEATHER SERVICE WILMINGTON, OH
100 AM EDT THU SEP 03 2015

NOTE: "FAIR" INDICATES FEW OR NO CLOUDS BELOW 12,000 FEET WITH NO
SIGNIFICANT WEATHER AND/OR OBSTRUCTIONS TO VISIBILITY.

OHZ001>008-015>018-024>027-034-035-043-044-030600-
   NORTHWEST OHIO

CITY           SKY/WX    TMP DP  RH WIND       PRES   REMARKS
DEFIANCE       PTCLDY    72  67  84 SW3       30.01S
FINDLAY        MOCLDY    72  66  81 SW8       30.01S
TOLEDO EXPRESS PTCLDY    71  69  93 W5        29.99S
TOLEDO EXEC    PTCLDY    71  67  87 CALM      29.99S
LIMA           LGT RAIN  71  66  84 CALM      30.02F
$$

OHZ009>014-019>023-028>033-038-089-030600-
   NORTHEAST OHIO

CITY           SKY/WX    TMP DP  RH WIND       PRES   REMARKS
CLE-HOPKINS    MOCLDY    74  69  85 SW7       30.00S
CLE-LAKEFRONT  PTCLDY    76  66  71 SW7       29.97S
CUY CO. ARPT   NOT AVBL
LORAIN-ELYRIA  CLEAR     71  66  84 SW7       30.00S
ASHTABULA      MOCLDY    69  68  96 CALM      29.99F FOG
AKRON-CANTON   MOCLDY    74  68  81 W5        30.02S
WOOSTER        NOT AVBL
MANSFIELD      PTCLDY    72  67  84 SW6       30.03S
YOUNGSTOWN     MOCLDY    70  68  93 CALM      30.00F
$$

OHZ042-051>053-060>062-070>072-077>081-030600-
  SOUTHWEST OHIO

CITY           SKY/WX    TMP DP  RH WIND       PRES   REMARKS
CINC-COVINGTON PTCLDY    73  66  78 CALM      30.04S
CINC-LUNKEN    CLEAR     68  68 100 NE3       30.04R FOG
HAMILTON       CLEAR     68  67  96 CALM      30.04S
DAYTON         NOT AVBL
WRIGHT-PAT AFB NOT AVBL
DAYTON GENERAL CLEAR     71  66  84 CALM      30.04S
WILMINGTON     FAIR      69  64  84 NE3       30.06R
$$

OHZ036-037-039>041-045>050-054>059-063>069-073>076-082>088-030600-
  CENTRAL AND SOUTHEAST OHIO

CITY           SKY/WX    TMP DP  RH WIND       PRES   REMARKS
COLUMBUS       CLOUDY    73  67  81 SW5       30.02F
OSU AIRPORT    LGT RAIN  71  66  84 W5        30.02F
BOLTON FIELD   NOT AVBL
RICKENBACK AFB NOT AVBL
NEWARK         CLOUDY    72  67  84 SW3       30.02S
MARION         MOCLDY    71  65  81 W3        30.03S
LANCASTER      MOCLDY    70  66  87 W3        30.04S
ZANESVILLE     MOCLDY    70  64  81 CALM      30.02S
NEW PHILLY     MOCLDY    69  68  96 CALM      30.01F FOG
$$



USA.gov is the U.S. government's official web portal to all federal, state and local government web resources and services.